Flag for U.S.A. Weather past 2 weeks in Aurora, Illinois, U.S.A.

Now
75 °F

Sunny.


Feels Like: 77 °F
Forecast: 54 / 76 °F
Wind: 6 mph from Northeast

Location: Dupage Airport

Current Time: Jul 24, 2014 at 3:11:46 PM

Latest Report: Jul 24, 2014 at 2:52 PM


Visibility: 10 mi

Pressure: 30.11 "Hg

Humidity: 37%

Dew point: 47 °F

Location of AuroraLocation

Historic Weather in Aurora — Graph

°F

Aurora temperature yesterday

Maximum temperature yesterday: 77 °F (at 1:52 PM)
Minimum temperature yesterday: 55 °F (at 11:52 PM)
Average temperature yesterday: 68 °F

Past Weeks' High & Low Weather Summary

 TemperatureHumidityPressure
High86 °F (Jul 22, 6:52 PM)97% (Jul 13, 12:52 AM)30.21 "Hg (Jul 13, 12:52 AM)
Low51 °F (Jul 16, 4:52 AM)35% (Jul 10, 1:52 PM)29.79 "Hg (Jul 14, 2:52 PM)
Average69 °F68%30.03 "Hg
* Reported Jul 9 1:52 PM — Jul 24 1:52 PM, Aurora, Weather by CustomWeather, © 2014

Note: Actual official high and low records may vary slightly from our data, if they occured in-between our weather recording intervals... More about our weather records

Advertising

Aurora weather history for previous 24 hours

 ConditionsComfort  
Time TempWeatherWind HumidityBarometerVisibility
1:52 PM
Jul 24
76 °FSunny.8 mph39%30.12 "Hg10 mi
12:52 PM74 °FSunny.10 mph40%30.16 "Hg10 mi
11:52 AM73 °FSunny.9 mph44%30.16 "Hg10 mi
10:52 AM72 °FSunny.8 mph49%30.17 "Hg10 mi
9:52 AM70 °FSunny.10 mph53%30.16 "Hg10 mi
8:52 AM66 °FSunny.8 mph65%30.17 "Hg10 mi
7:52 AM63 °FSunny.8 mph73%30.18 "Hg10 mi
6:52 AM58 °FSunny.7 mph84%30.17 "Hg10 mi
5:52 AM52 °FClear.5 mph89%30.15 "Hg10 mi
4:52 AM53 °FClear.5 mph89%30.15 "Hg10 mi
3:52 AM53 °FClear.6 mph89%30.13 "Hg10 mi
2:52 AM53 °FClear.7 mph86%30.13 "Hg10 mi
1:52 AM53 °FClear.6 mph86%30.14 "Hg10 mi
12:52 AM54 °FClear.6 mph83%30.14 "Hg10 mi
11:52 PM
Jul 23
55 °FClear.6 mph80%30.14 "Hg10 mi
10:52 PM56 °FClear.7 mph75%30.13 "Hg10 mi
9:52 PM58 °FClear.7 mph70%30.14 "Hg10 mi
8:52 PM62 °FSunny.12 mph62%30.13 "Hg10 mi
7:52 PM65 °FSunny.12 mph61%30.14 "Hg10 mi
6:52 PM68 °FSunny.15 mph61%30.13 "Hg10 mi
5:52 PM72 °FPassing clouds.13 mph57%30.12 "Hg10 mi
4:52 PM74 °FPassing clouds.15 mph50%30.11 "Hg10 mi
3:52 PM77 °FSunny.17 mph44%30.11 "Hg10 mi
Weather by CustomWeather, © 2014

See weather overviewHow to use our weather pages